Tallahassee, FL

7:39 AM EDT on April 25, 2018 (GMT -0400)
Tallahassee Regional

Weather History for KTLH - March, 2014

Change the Weather History Date:

Monday, March 31, 2014

  Actual Average Record
Temperature  
Mean Temperature 62 °F 63 °F  
Max Temperature 83 °F 77 °F 89 °F (1929)
Min Temperature 40 °F 49 °F 28 °F (1971)
Degree Days  
Heating Degree Days 3    
Month to date heating degree days 174  
Since 1 July heating degree days 1317  
Cooling Degree Days 0    
Month to date cooling degree days 12  
Year to date cooling degree days 24  
Growing Degree Days 10 (Base 50)    
Moisture  
Dew Point 38 °F    
Average Humidity 48    
Maximum Humidity 83    
Minimum Humidity 13    
Precipitation  
Precipitation 0.00 in 0.16 in 7.09 in (1962)
Month to date precipitation 10.23 5.94  
Year to date precipitation 18.28 15.13  
Sea Level Pressure  
Sea Level Pressure 30.13 in    
Wind  
Wind Speed 2 mph (SSE)    
Max Wind Speed 10 mph    
Max Gust Speed 18 mph    
Visibility 10 miles    
Events      
T = Trace of Precipitation, MM = Missing Value Source: NWS Daily Summary

Daily Weather History Graph

Daily Weather History Graph

Search for Another Location

Airport or City:

Astronomy

Mar. 31, 2014 Rise Set
Actual Time 7:27 AM EDT 7:55 PM EDT
Civil Twilight 7:03 AM EDT 8:19 PM EDT
Nautical Twilight 6:35 AM EDT 8:48 PM EDT
Astronomical Twilight 6:06 AM EDT 9:16 PM EDT
Moon 7:54 AM EDT (3/31) 9:06 PM EDT (3/31)
Length of Visible Light 13h 16m
Length of Day
12h 27m
New Moon, 1% of the Moon is Illuminated
Mar 31
New Moon
Apr 7
First Quarter
Apr 15
Full
Apr 22
Last Quarter
Apr 29
New

Hourly Weather History & Observations

Time (EDT) Temp. Dew Point Humidity Pressure Visibility Wind Dir Wind Speed Gust Speed Precip Events Conditions
12:53 AM 54.0 °F 42.1 °F 64% 30.12 in 10.0 mi NNW 4.6 mph - N/A   Clear
1:53 AM 50.0 °F 41.0 °F 71% 30.13 in 10.0 mi Calm Calm - N/A   Clear
2:53 AM 46.9 °F 39.9 °F 77% 30.12 in 10.0 mi Calm Calm - N/A   Clear
3:53 AM 44.1 °F 39.0 °F 82% 30.11 in 10.0 mi Calm Calm - N/A   Clear
4:53 AM 44.1 °F 39.0 °F 82% 30.10 in 10.0 mi Calm Calm - N/A   Clear
5:53 AM 42.1 °F 37.0 °F 82% 30.11 in 10.0 mi Calm Calm - N/A   Clear
6:53 AM 42.1 °F 36.0 °F 79% 30.13 in 10.0 mi Calm Calm - N/A   Scattered Clouds
7:53 AM 41.0 °F 36.0 °F 82% 30.16 in 10.0 mi Calm Calm - N/A   Scattered Clouds
8:53 AM 46.0 °F 39.9 °F 79% 30.18 in 10.0 mi Calm Calm - N/A   Partly Cloudy
9:53 AM 54.0 °F 42.1 °F 64% 30.19 in 10.0 mi Calm Calm - N/A   Partly Cloudy
10:53 AM 62.1 °F 41.0 °F 46% 30.19 in 10.0 mi SE 3.5 mph - N/A   Partly Cloudy
11:53 AM 68.0 °F 32.0 °F 26% 30.19 in 10.0 mi ESE 5.8 mph - N/A   Partly Cloudy
12:53 PM 73.0 °F 32.0 °F 22% 30.17 in 10.0 mi ENE 4.6 mph - N/A   Partly Cloudy
1:53 PM 75.9 °F 30.9 °F 19% 30.15 in 10.0 mi Calm Calm - N/A   Partly Cloudy
2:53 PM 80.1 °F 32.0 °F 17% 30.12 in 10.0 mi WNW 4.6 mph - N/A   Partly Cloudy
3:53 PM 82.0 °F 30.9 °F 16% 30.10 in 10.0 mi Variable 4.6 mph - N/A   Partly Cloudy
4:53 PM 82.0 °F 27.0 °F 13% 30.09 in 10.0 mi SW 3.5 mph - N/A   Partly Cloudy
5:53 PM 82.0 °F 28.0 °F 14% 30.08 in 10.0 mi Calm Calm - N/A   Partly Cloudy
6:53 PM 79.0 °F 39.9 °F 25% 30.08 in 10.0 mi South 8.1 mph - N/A   Partly Cloudy
7:53 PM 73.0 °F 43.0 °F 34% 30.09 in 10.0 mi South 4.6 mph - N/A   Partly Cloudy
8:53 PM 66.0 °F 45.0 °F 47% 30.12 in 10.0 mi SSE 3.5 mph - N/A   Partly Cloudy
9:53 PM 61.0 °F 46.0 °F 58% 30.14 in 10.0 mi Calm Calm - N/A   Partly Cloudy
10:53 PM 55.9 °F 45.0 °F 67% 30.14 in 10.0 mi Calm Calm - N/A   Partly Cloudy
11:53 PM 53.1 °F 44.1 °F 71% 30.14 in 10.0 mi Calm Calm - N/A   Clear